TDF 2

Satellite information

Favourite Embed

Satellite Type and Status

PAYLOADIN ORBIT

Key statistics

Satellite TDF 2 at a glance.

Uptime

12707

Days in orbit

Revolutions

≈ 1.0

Per day

Orbit

OTHER

Other

Inclination

15.2

Latest

Satellite identification and parameters

Extended collection of information and parameters for TDF 2.

Object identification

Identified? True

Debris? False

Object name: TDF 2

International designator: 1990-063A

Object number (NORAD): 20705

Object ID (CCSDS): 20705

Country: FRANCE (FR)

Current information (Y/N): Y

RCS size: LARGE

Orbital parameters

Period: 1460.31 minutes

Inclination: 15.1606 deg

SMA: 42637.348 km

Apoapsis: 36454.288 km

Periapsis: 36064.139 km

RAAN: 1.4166 deg

Eccentricy: 0.0045752

Argument of periapsis: 320.9774 deg

Mean anomaly: 220.3695 deg

Mean motion: 0.9860921 rev/day

Mean motion (dot): -0.00000126 rev/day2

B* drag term: 0.0 1/REarth

Two-line elements (TLE)

Creation date: May 7, 2025, 3:14 a.m.

Reference frame: TEME

Reference center: EARTH

Epoch: May 6, 2025, 7:59 a.m. UTC

TLE line 0: 0 TDF 2

TLE line 1: 1 20705U 90063A 25126.33289847 -.00000126 00000-0 00000-0 0 9992

TLE line 2: 2 20705 15.1606 1.4166 0045752 320.9774 220.3695 0.98609210128551

Live tracking on map

Real-time ground track for satellite TDF 2.

In-orbit conjunctions

There are no conjunctions computed for TDF 2, at the moment. Check back to stay up to date, as we update our databases every day.

Go to all conjunctions

Associated space launch

French and German direct broadcasting satellites

TDF 2 was lifted into orbit during the mission ‘Ariane 44L | TDF 2 & DFS-Kopernikus 2’, on board a Ariane 44L space rocket.

The launch took place on July 24, 1990, 10:25 p.m. from Ariane Launch Area 2.

For more information about the launch, click the button.

Launch to space Ariane 44L | TDF 2 & DFS-Kopernikus 2
Ariane 44L | TDF 2 & DFS-Kopernikus 2

Agency: N/A

Status: Launch Successful

Launch date: July 24, 1990, 10:25 p.m. UTC

Rocket: Ariane 44L

Launch pad: Ariane Launch Area 2

Location: Guiana Space Centre, French Guiana

...

Latest news about this satellite

There are no fresh news available about this satellite. Check back as we update our databases every day.


Newsletter sign-up

Weekly statistics, charts and insights to help you stay on top of the space industry.